Location: Songkhla
(7.2000°N, 100.6000°E)
Time: 03:31:50
(UTC+07:00)

BRICSAT 2 - Pass Details

Date: 22 June 2021
Orbit: 295 x 638 km, 28.5° (Epoch: 28 July)

Event Time Altitude Azimuth Distance (km) Brightness Sun altitude
Rises 20:59:58 0° 289° (WNW) 2,605 ? -32.4°
Reaches altitude 10° 21:02:09 10° 283° (WNW) 1,781 ? -32.9°
Enters shadow 21:03:11 17° 277° (W) 1,415 ? -33.1°
Maximum altitude 21:06:09 45° 210° (SSW) 783 - -33.7°
Drops below altitude 10° 21:10:40 10° 136° (SE) 2,002 - -34.6°
Sets 21:13:06 0° 130° (SE) 2,913 - -35.1°
